Regional Weather Roundup
Issued by NWS

Home | Current Version | Previous Version | Graphics & Text | Print | Product List | Glossary On
Versions: 1 2 3 4 5 6 7 8 9 10 11 12 13 14 15 16 17 18 19 20 21 22 23 24 25 26 27 28 29 30 31 32 33 34 35 36 37 38 39 40 41 42 43 44 45 46 47 48 49 50
374
ASUS45 KBOU 200807
RWRCO

WEATHER ROUNDUP FOR COLORADO
NATIONAL WEATHER SERVICE DENVER/BOULDER CO
200 AM MDT FRI OCT 20 2017

NOTE: "FAIR" INDICATES FEW OR NO CLOUDS BELOW 12000 FEET WITH NO
SIGNIFICANT WEATHER AND/OR OBSTRUCTIONS TO VISIBILITY.

COZ001>005-013-030-031-200900-
...NORTHWEST COLORADO...

CITY           SKY/WX    TMP DP  RH WIND       PRES   REMARKS
CRAIG          MOCLDY    39  31  72 CALM      29.92F
HAYDEN         CLOUDY    49  31  49 E5        29.95F
MEEKER         FAIR      46  32  58 VRB3      29.94F
RABBIT EARS PA FAIR      41  28  60 S7G18     30.14F
STEAMBOAT SPGS CLOUDY    46  31  56 CALM      29.96F
WALDEN         NOT AVBL
$$

COZ006>008-011-200900-
...WEST CENTRAL VALLEYS...

CITY           SKY/WX    TMP DP  RH WIND       PRES   REMARKS
GRAND JUNCTION MOCLDY    62  33  33 E10       29.87F
MONTROSE       CLOUDY    54  30  40 SE9       29.97F
EAGLE          FAIR      38  28  67 S3        30.02F
RIFLE          FAIR      49  32  52 CALM      29.93S
DELTA          FAIR      56  28  34 NE3       29.93F
NUCLA          MOCLDY    55  30  38 E8        30.01F
$$

COZ017>023-064>068-200900-
...SOUTHWEST COLORADO...

CITY           SKY/WX    TMP DP  RH WIND       PRES   REMARKS
DURANGO        CLOUDY    47  34  60 CALM      30.07F
CORTEZ         MOCLDY    44  33  65 CALM      30.01F
PAGOSA SPRINGS CLOUDY    48  28  46 CALM      30.12F
TELLURIDE      FAIR      47  32  55 CALM      30.16F
WOLF CREEK PAS CLOUDY    32  30  93 SW14G24   30.32F WCI  22
$$

COZ009-010-012-014-032>034-037-058>063-200900-
...CENTRAL COLORADO...

CITY           SKY/WX    TMP DP  RH WIND       PRES   REMARKS
ASPEN          FAIR      40  27  59 SW6       30.04F
BUENA VISTA    FAIR      37  20  49 E3        30.05F
COPPER MTN     FAIR      39  23  52 CALM      30.24F
BERTHOUD PASS  FAIR      32  23  69 NW18      30.25F WCI  20
COTTONWOOD PAS FAIR      52  27  37 SW9       30.14F
GUNNISON       FAIR      34  26  72 CALM      30.09S
KREMMLING      FAIR      36  27  69 CALM      30.05F
LEADVILLE      FAIR      27  19  72 NE3       30.13F
MONARCH PASS   FAIR      34  25  69 W31       30.33F WCI  20
SALIDA         FAIR      46  20  36 NW3       30.11S
SUNLIGHT       MOCLDY    37  27  65 SW14G22   30.20F
WILKERSON PASS FAIR      39  12  33 W7        30.22F
$$

COZ069>075-200900-
...SAN LUIS VALLEY/SANGRE DE CRISTO MOUNTAINS...

CITY           SKY/WX    TMP DP  RH WIND       PRES   REMARKS
ALAMOSA        FAIR      40  31  70 CALM      30.06S
DEL NORTE      FAIR      50  29  44 W17       30.08S
LA VETA PASS   FAIR      41  30  65 S25G41    30.26F
SAGUACHE       FAIR      37  21  52 CALM      30.09R
$$

COZ035-036-038>040-200900-
...NORTHERN COLORADO FRONT RANGE...

CITY           SKY/WX    TMP DP  RH WIND       PRES   REMARKS
DENVER INTL AP FAIR      50  31  48 SW3       29.84F
DMNS CITY PARK   N/A     50  28  42 SE10      29.84S
AURORA         PTCLDY    51  31  44 S8        29.85F
FRONT RANGE AP FAIR      52  34  50 SW7       29.85F
ERIE MUNI ARPT FAIR      41  33  73 CALM      29.88F
BOULDER MUN AP FAIR      50  30  46 W3        29.83F
CENTENNIAL     FAIR      52  28  39 S5        29.86F
BROOMFIELD     FAIR      55  28  35 NW6       29.85F
FORT COLLINS   FAIR      48  40  73 CALM      29.83F
LONGMONT       FAIR      43  33  67 W3        29.85F
$$

COZ041-046-047-076>085-087-088-200900-
...PIKES PEAK/PALMER DIVIDE AND SOUTHERN FOOTHILLS...

CITY           SKY/WX    TMP DP  RH WIND       PRES   REMARKS
COLO. SPRINGS  MOCLDY    45  33  63 N9        29.91F
A. F. ACADEMY  FAIR      40  29  67 N6        29.91F
SCHRIEVER AFB  FAIR      47  33  57 N8        29.90F
CHEYENNE MTN   FAIR      56  25  29 NW8       29.88F
ELLICOTT       FAIR     N/A N/A N/A VRB3      29.88F
FALCON         FAIR      40  30  67 N3        29.94F
FORT CARSON    FAIR      45  30  56 NW7       29.87F
LIMON          FAIR      33  33 100 CALM      29.88F
MONUMENT HILL  FAIR      43  30  61 SW9       29.95F
CANON CITY     FAIR      54  30  40 W9        29.87S
WALSENBURG     FAIR      59  32  36 W13G18    29.93S
TRINIDAD       FAIR      54  39  57 W13       29.91F
$$

COZ042>045-048>051-090-091-200900-
...NORTHEAST COLORADO...

CITY           SKY/WX    TMP DP  RH WIND       PRES   REMARKS
GREELEY ARPT   FAIR      38  32  79 W5        29.82F
AKRON          FAIR      47  40  76 SW10      29.81F
BURLINGTON     FAIR      53  47  79 S15       29.85F
WRAY           NOT AVBL
YUMA           NOT AVBL
STERLING       FAIR      45  37  76 SW5       29.78F
HOLYOKE        FAIR      45  37  76 S5        29.81F
FORT MORGAN    FAIR      44  33  65 SW6       29.81F
$$

COZ086-089-092>099-200900-
...SOUTHEAST COLORADO...

CITY           SKY/WX    TMP DP  RH WIND       PRES   REMARKS
PUEBLO         FAIR      44  33  65 NW6       29.85S
LA JUNTA       FAIR      56  42  59 S5        29.83F
LAMAR          FAIR      63  46  54 S18G29    29.81F
SPRINGFIELD    NOT AVBL
$$




USA.gov is the U.S. government's official web portal to all federal, state and local government web resources and services.